Year,Month,Day,Hour,Minute,Value (Times are PST for windgust in km/hr)
2013,10,03,00,00,11.30
2013,10,03,00,01,6.40
2013,10,03,00,02,8.10
2013,10,03,00,03,6.40
2013,10,03,00,04,6.40
2013,10,03,00,05,8.10
2013,10,03,00,06,6.40
2013,10,03,00,07,4.80
2013,10,03,00,08,6.40
2013,10,03,00,09,6.40
2013,10,03,00,10,4.80
2013,10,03,00,11,6.40
2013,10,03,00,12,6.40
2013,10,03,00,13,8.10
2013,10,03,00,14,8.10
2013,10,03,00,15,8.10
2013,10,03,00,16,8.10
2013,10,03,00,17,8.10
2013,10,03,00,18,9.60
2013,10,03,00,19,9.60
2013,10,03,00,20,8.10
2013,10,03,00,21,8.10
2013,10,03,00,22,9.60
2013,10,03,00,23,11.30
2013,10,03,00,24,4.80
2013,10,03,00,25,6.40
2013,10,03,00,26,4.80
2013,10,03,00,27,6.40
2013,10,03,00,28,6.40
2013,10,03,00,29,8.10
2013,10,03,00,30,6.40
2013,10,03,00,31,6.40
2013,10,03,00,32,6.40
2013,10,03,00,33,4.80
2013,10,03,00,34,8.10
2013,10,03,00,35,8.10
2013,10,03,00,36,6.40
2013,10,03,00,37,4.80
2013,10,03,00,38,6.40
2013,10,03,00,39,6.40
2013,10,03,00,40,4.80
2013,10,03,00,41,4.80
2013,10,03,00,42,4.80
2013,10,03,00,43,3.20
2013,10,03,00,44,3.20
2013,10,03,00,45,3.20
2013,10,03,00,46,3.20
2013,10,03,00,47,4.80
2013,10,03,00,48,4.80
2013,10,03,00,49,4.80
2013,10,03,00,50,4.80
2013,10,03,00,51,4.80
2013,10,03,00,52,4.80
2013,10,03,00,53,4.80
2013,10,03,00,54,4.80
2013,10,03,00,55,4.80
2013,10,03,00,56,3.20
2013,10,03,00,57,3.20
2013,10,03,00,58,3.20
2013,10,03,00,59,4.80
2013,10,03,01,00,3.20
2013,10,03,01,01,3.20
2013,10,03,01,02,4.80
2013,10,03,01,03,3.20
2013,10,03,01,04,3.20
2013,10,03,01,05,3.20
2013,10,03,01,06,3.20
2013,10,03,01,07,3.20
2013,10,03,01,08,3.20
2013,10,03,01,09,3.20
2013,10,03,01,10,1.60
2013,10,03,01,11,1.60
2013,10,03,01,12,3.20
2013,10,03,01,13,1.60
2013,10,03,01,14,1.60
2013,10,03,01,15,4.80
2013,10,03,01,16,4.80
2013,10,03,01,17,3.20
2013,10,03,01,18,3.20
2013,10,03,01,19,3.20
2013,10,03,01,20,4.80
2013,10,03,01,21,3.20
2013,10,03,01,22,6.40
2013,10,03,01,23,3.20
2013,10,03,01,24,3.20
2013,10,03,01,25,3.20
2013,10,03,01,26,3.20
2013,10,03,01,27,4.80
2013,10,03,01,28,1.60
2013,10,03,01,29,1.60
2013,10,03,01,30,3.20
2013,10,03,01,31,3.20
2013,10,03,01,32,3.20
2013,10,03,01,33,3.20
2013,10,03,01,34,1.60
2013,10,03,01,35,1.60
2013,10,03,01,37,1.60
2013,10,03,01,40,1.60
2013,10,03,01,41,1.60
2013,10,03,01,43,1.60
2013,10,03,01,44,1.60
2013,10,03,01,48,1.60
2013,10,03,01,49,1.60
2013,10,03,01,50,3.20
2013,10,03,01,51,1.60
2013,10,03,01,52,3.20
2013,10,03,01,53,3.20
2013,10,03,01,54,4.80
2013,10,03,01,55,3.20
2013,10,03,01,56,4.80
2013,10,03,01,57,4.80
2013,10,03,01,58,4.80
2013,10,03,01,59,4.80
2013,10,03,02,00,6.40
2013,10,03,02,01,8.10
2013,10,03,02,02,4.80
2013,10,03,02,03,8.10
2013,10,03,02,04,6.40
2013,10,03,02,05,4.80
2013,10,03,02,06,4.80
2013,10,03,02,07,4.80
2013,10,03,02,08,4.80
2013,10,03,02,09,4.80
2013,10,03,02,10,6.40
2013,10,03,02,11,6.40
2013,10,03,02,12,4.80
2013,10,03,02,13,8.10
2013,10,03,02,14,6.40
2013,10,03,02,15,4.80
2013,10,03,02,16,4.80
2013,10,03,02,17,4.80
2013,10,03,02,18,3.20
2013,10,03,02,19,4.80
2013,10,03,02,20,4.80
2013,10,03,02,21,4.80
2013,10,03,02,22,4.80
2013,10,03,02,23,6.40
2013,10,03,02,24,4.80
2013,10,03,02,25,3.20
2013,10,03,02,26,3.20
2013,10,03,02,27,4.80
2013,10,03,02,28,4.80
2013,10,03,02,29,4.80
2013,10,03,02,30,1.60
2013,10,03,02,31,3.20
2013,10,03,02,32,3.20
2013,10,03,02,33,3.20
2013,10,03,02,34,3.20
2013,10,03,02,35,3.20
2013,10,03,02,36,1.60
2013,10,03,02,37,3.20
2013,10,03,02,38,3.20
2013,10,03,02,39,1.60
2013,10,03,02,40,1.60
2013,10,03,02,41,1.60
2013,10,03,02,42,1.60
2013,10,03,02,43,1.60
2013,10,03,02,44,1.60
2013,10,03,02,45,1.60
2013,10,03,02,48,1.60
2013,10,03,02,49,1.60
2013,10,03,02,52,1.60
2013,10,03,02,53,1.60
2013,10,03,02,54,1.60
2013,10,03,02,55,1.60
2013,10,03,02,58,1.60
2013,10,03,02,59,1.60
2013,10,03,03,00,1.60
2013,10,03,03,01,1.60
2013,10,03,03,02,1.60
2013,10,03,03,03,1.60
2013,10,03,03,07,1.60
2013,10,03,03,08,1.60
2013,10,03,03,09,1.60
2013,10,03,03,10,1.60
2013,10,03,03,11,1.60
2013,10,03,03,12,1.60
2013,10,03,03,13,3.20
2013,10,03,03,14,3.20
2013,10,03,03,15,1.60
2013,10,03,03,19,1.60
2013,10,03,03,37,1.60
2013,10,03,03,38,4.80
2013,10,03,03,39,4.80
2013,10,03,03,40,3.20
2013,10,03,03,41,4.80
2013,10,03,03,42,3.20
2013,10,03,03,43,1.60
2013,10,03,03,44,1.60
2013,10,03,03,45,1.60
2013,10,03,03,49,1.60
2013,10,03,03,50,3.20
2013,10,03,03,51,3.20
2013,10,03,03,52,1.60
2013,10,03,03,53,1.60
2013,10,03,03,54,4.80
2013,10,03,03,55,4.80
2013,10,03,03,56,4.80
2013,10,03,03,57,3.20
2013,10,03,03,58,1.60
2013,10,03,03,59,3.20
2013,10,03,04,00,3.20
2013,10,03,04,01,1.60
2013,10,03,04,03,3.20
2013,10,03,04,04,1.60
2013,10,03,04,05,1.60
2013,10,03,04,06,1.60
2013,10,03,04,07,1.60
2013,10,03,04,09,1.60
2013,10,03,04,10,1.60
2013,10,03,04,11,1.60
2013,10,03,04,12,1.60
2013,10,03,04,13,1.60
2013,10,03,04,14,1.60
2013,10,03,04,15,1.60
2013,10,03,04,16,1.60
2013,10,03,04,17,1.60
2013,10,03,04,18,1.60
2013,10,03,04,19,1.60
2013,10,03,04,20,1.60
2013,10,03,04,21,1.60
2013,10,03,04,22,1.60
2013,10,03,04,23,1.60
2013,10,03,04,24,1.60
2013,10,03,04,25,3.20
2013,10,03,04,26,3.20
2013,10,03,04,27,3.20
2013,10,03,04,28,3.20
2013,10,03,04,29,1.60
2013,10,03,04,30,1.60
2013,10,03,04,31,1.60
2013,10,03,04,32,3.20
2013,10,03,04,33,1.60
2013,10,03,04,34,1.60
2013,10,03,04,35,1.60
2013,10,03,04,36,1.60
2013,10,03,04,37,3.20
2013,10,03,04,38,3.20
2013,10,03,04,39,3.20
2013,10,03,04,40,3.20
2013,10,03,04,41,3.20
2013,10,03,04,42,3.20
2013,10,03,04,43,3.20
2013,10,03,04,44,4.80
2013,10,03,04,45,4.80
2013,10,03,04,46,4.80
2013,10,03,04,47,4.80
2013,10,03,04,48,4.80
2013,10,03,04,49,6.40
2013,10,03,04,50,6.40
2013,10,03,04,51,6.40
2013,10,03,04,52,4.80
2013,10,03,04,53,6.40
2013,10,03,04,54,4.80
2013,10,03,04,55,6.40
2013,10,03,04,56,6.40
2013,10,03,04,57,6.40
2013,10,03,04,58,6.40
2013,10,03,04,59,6.40
2013,10,03,05,00,8.10
2013,10,03,05,01,6.40
2013,10,03,05,02,6.40
2013,10,03,05,03,8.10
2013,10,03,05,04,8.10
2013,10,03,05,05,8.10
2013,10,03,05,06,8.10
2013,10,03,05,07,8.10
2013,10,03,05,08,9.60
2013,10,03,05,09,6.40
2013,10,03,05,10,8.10
2013,10,03,05,11,6.40
2013,10,03,05,12,6.40
2013,10,03,05,13,6.40
2013,10,03,05,14,8.10
2013,10,03,05,15,9.60
2013,10,03,05,16,6.40
2013,10,03,05,17,4.80
2013,10,03,05,18,6.40
2013,10,03,05,19,6.40
2013,10,03,05,20,6.40
2013,10,03,05,21,4.80
2013,10,03,05,22,4.80
2013,10,03,05,23,4.80
2013,10,03,05,24,4.80
2013,10,03,05,25,4.80
2013,10,03,05,26,4.80
2013,10,03,05,27,4.80
2013,10,03,05,28,6.40
2013,10,03,05,29,6.40
2013,10,03,05,30,6.40
2013,10,03,05,31,6.40
2013,10,03,05,32,4.80
2013,10,03,05,33,4.80
2013,10,03,05,34,6.40
2013,10,03,05,35,4.80
2013,10,03,05,36,6.40
2013,10,03,05,37,6.40
2013,10,03,05,38,6.40
2013,10,03,05,39,4.80
2013,10,03,05,40,4.80
2013,10,03,05,41,4.80
2013,10,03,05,42,4.80
2013,10,03,05,43,4.80
2013,10,03,05,44,6.40
2013,10,03,05,45,4.80
2013,10,03,05,46,6.40
2013,10,03,05,47,6.40
2013,10,03,05,48,6.40
2013,10,03,05,49,6.40
2013,10,03,05,50,8.10
2013,10,03,05,51,8.10
2013,10,03,05,52,6.40
2013,10,03,05,53,6.40
2013,10,03,05,54,6.40
2013,10,03,05,55,6.40
2013,10,03,05,56,6.40
2013,10,03,05,57,4.80
2013,10,03,05,58,4.80
2013,10,03,05,59,4.80
2013,10,03,06,00,4.80
2013,10,03,06,01,3.20
2013,10,03,06,02,3.20
2013,10,03,06,03,1.60
2013,10,03,06,05,1.60
2013,10,03,06,06,1.60
2013,10,03,06,07,4.80
2013,10,03,06,08,4.80
2013,10,03,06,09,4.80
2013,10,03,06,10,6.40
2013,10,03,06,11,4.80
2013,10,03,06,12,4.80
2013,10,03,06,13,3.20
2013,10,03,06,14,4.80
2013,10,03,06,15,3.20
2013,10,03,06,16,3.20
2013,10,03,06,17,1.60
2013,10,03,06,18,1.60
2013,10,03,06,19,1.60
2013,10,03,06,20,1.60
2013,10,03,06,22,1.60
2013,10,03,06,23,1.60
2013,10,03,06,24,1.60
2013,10,03,06,25,1.60
2013,10,03,06,31,1.60
2013,10,03,06,36,1.60
2013,10,03,06,37,1.60
2013,10,03,06,41,1.60
2013,10,03,06,42,1.60
2013,10,03,06,44,1.60
2013,10,03,06,45,1.60
2013,10,03,06,46,1.60
2013,10,03,06,47,1.60
2013,10,03,06,49,1.60
2013,10,03,06,50,1.60
2013,10,03,06,51,1.60
2013,10,03,06,52,1.60
2013,10,03,06,53,1.60
2013,10,03,06,54,1.60
2013,10,03,06,55,1.60
2013,10,03,07,14,3.20
2013,10,03,07,15,1.60
2013,10,03,07,17,1.60
2013,10,03,07,18,1.60
2013,10,03,07,19,3.20
2013,10,03,07,20,1.60
2013,10,03,07,21,1.60
2013,10,03,07,22,1.60
2013,10,03,07,23,1.60
2013,10,03,07,24,3.20
2013,10,03,07,25,3.20
2013,10,03,07,26,1.60
2013,10,03,07,27,1.60
2013,10,03,07,28,1.60
2013,10,03,07,30,1.60
2013,10,03,07,31,1.60
2013,10,03,07,32,1.60
2013,10,03,07,33,1.60
2013,10,03,07,41,1.60
2013,10,03,07,42,3.20
2013,10,03,07,43,1.60
2013,10,03,07,47,1.60
2013,10,03,07,48,3.20
2013,10,03,07,49,3.20
2013,10,03,07,50,1.60
2013,10,03,07,52,1.60
2013,10,03,07,53,1.60
2013,10,03,07,54,1.60
2013,10,03,07,55,1.60
2013,10,03,07,56,1.60
2013,10,03,07,57,1.60
2013,10,03,07,58,3.20
2013,10,03,07,59,1.60
2013,10,03,08,16,1.60
2013,10,03,08,17,1.60
2013,10,03,08,19,1.60
2013,10,03,08,20,1.60
2013,10,03,08,21,1.60
2013,10,03,08,22,3.20
2013,10,03,08,23,3.20
2013,10,03,08,24,3.20
2013,10,03,08,25,3.20
2013,10,03,08,26,3.20
2013,10,03,08,27,4.80
2013,10,03,08,28,1.60
2013,10,03,08,29,1.60
2013,10,03,08,30,3.20
2013,10,03,08,31,3.20
2013,10,03,08,32,3.20
2013,10,03,08,33,1.60
2013,10,03,08,34,1.60
2013,10,03,08,36,1.60
2013,10,03,08,37,1.60
2013,10,03,08,38,1.60
2013,10,03,08,39,1.60
2013,10,03,08,40,1.60
2013,10,03,08,41,3.20
2013,10,03,08,42,1.60
2013,10,03,08,43,3.20
2013,10,03,08,44,3.20
2013,10,03,08,45,1.60
2013,10,03,08,46,3.20
2013,10,03,08,47,3.20
2013,10,03,08,48,3.20
2013,10,03,08,49,3.20
2013,10,03,08,50,4.80
2013,10,03,08,51,3.20
2013,10,03,08,52,3.20
2013,10,03,08,53,3.20
2013,10,03,08,54,3.20
2013,10,03,08,55,3.20
2013,10,03,08,56,1.60
2013,10,03,08,57,3.20
2013,10,03,08,58,1.60
2013,10,03,08,59,1.60
2013,10,03,09,00,1.60
2013,10,03,09,01,3.20
2013,10,03,09,02,3.20
2013,10,03,09,03,3.20
2013,10,03,09,04,3.20
2013,10,03,09,05,4.80
2013,10,03,09,06,4.80
2013,10,03,09,07,3.20
2013,10,03,09,08,3.20
2013,10,03,09,09,4.80
2013,10,03,09,10,3.20
2013,10,03,09,11,3.20
2013,10,03,09,12,4.80
2013,10,03,09,13,6.40
2013,10,03,09,14,4.80
2013,10,03,09,15,6.40
2013,10,03,09,16,6.40
2013,10,03,09,17,6.40
2013,10,03,09,18,6.40
2013,10,03,09,19,8.10
2013,10,03,09,20,4.80
2013,10,03,09,21,6.40
2013,10,03,09,22,6.40
2013,10,03,09,23,6.40
2013,10,03,09,24,4.80
2013,10,03,09,25,8.10
2013,10,03,09,26,4.80
2013,10,03,09,27,3.20
2013,10,03,09,28,8.10
2013,10,03,09,29,9.60
2013,10,03,09,30,8.10
2013,10,03,09,31,9.60
2013,10,03,09,32,8.10
2013,10,03,09,33,8.10
2013,10,03,09,34,6.40
2013,10,03,09,35,4.80
2013,10,03,09,36,8.10
2013,10,03,09,37,6.40
2013,10,03,09,38,3.20
2013,10,03,09,39,4.80
2013,10,03,09,40,8.10
2013,10,03,09,41,6.40
2013,10,03,09,42,8.10
2013,10,03,09,43,4.80
2013,10,03,09,44,6.40
2013,10,03,09,45,6.40
2013,10,03,09,46,8.10
2013,10,03,09,47,6.40
2013,10,03,09,48,4.80
2013,10,03,09,49,6.40
2013,10,03,09,50,11.30
2013,10,03,09,51,8.10
2013,10,03,09,52,4.80
2013,10,03,09,53,4.80
2013,10,03,09,54,4.80
2013,10,03,09,55,6.40
2013,10,03,09,56,6.40
2013,10,03,09,57,4.80
2013,10,03,09,58,9.60
2013,10,03,09,59,9.60
2013,10,03,10,00,8.10
2013,10,03,10,01,4.80
2013,10,03,10,02,8.10
2013,10,03,10,03,6.40
2013,10,03,10,04,9.60
2013,10,03,10,05,6.40
2013,10,03,10,06,9.60
2013,10,03,10,07,4.80
2013,10,03,10,08,12.90
2013,10,03,10,09,11.30
2013,10,03,10,10,9.60
2013,10,03,10,11,16.10
2013,10,03,10,12,6.40
2013,10,03,10,13,9.60
2013,10,03,10,14,14.50
2013,10,03,10,15,9.60
2013,10,03,10,16,8.10
2013,10,03,10,17,11.30
2013,10,03,10,18,11.30
2013,10,03,10,19,9.60
2013,10,03,10,20,14.50
2013,10,03,10,21,16.10
2013,10,03,10,22,12.90
2013,10,03,10,23,9.60
2013,10,03,10,24,11.30
2013,10,03,10,25,11.30
2013,10,03,10,26,8.10
2013,10,03,10,27,8.10
2013,10,03,10,28,9.60
2013,10,03,10,29,9.60
2013,10,03,10,30,9.60
2013,10,03,10,31,9.60
2013,10,03,10,32,9.60
2013,10,03,10,33,14.50
2013,10,03,10,34,14.50
2013,10,03,10,35,14.50
2013,10,03,10,36,11.30
2013,10,03,10,37,16.10
2013,10,03,10,38,17.70
2013,10,03,10,39,14.50
2013,10,03,10,40,11.30
2013,10,03,10,41,9.60
2013,10,03,10,42,16.10
2013,10,03,10,43,14.50
2013,10,03,10,44,14.50
2013,10,03,10,45,9.60
2013,10,03,10,46,6.40
2013,10,03,10,47,12.90
2013,10,03,10,48,16.10
2013,10,03,10,49,8.10
2013,10,03,10,50,6.40
2013,10,03,10,51,8.10
2013,10,03,10,52,8.10
2013,10,03,10,53,4.80
2013,10,03,10,54,6.40
2013,10,03,10,55,6.40
2013,10,03,10,56,11.30
2013,10,03,10,57,8.10
2013,10,03,10,58,8.10
2013,10,03,10,59,6.40
2013,10,03,11,00,8.10
2013,10,03,11,01,9.60
2013,10,03,11,02,4.80
2013,10,03,11,03,9.60
2013,10,03,11,04,8.10
2013,10,03,11,05,14.50
2013,10,03,11,06,9.60
2013,10,03,11,07,11.30
2013,10,03,11,08,11.30
2013,10,03,11,09,8.10
2013,10,03,11,10,14.50
2013,10,03,11,11,14.50
2013,10,03,11,12,9.60
2013,10,03,11,13,12.90
2013,10,03,11,14,12.90
2013,10,03,11,15,8.10
2013,10,03,11,16,11.30
2013,10,03,11,17,19.30
2013,10,03,11,18,14.50
2013,10,03,11,19,17.70
2013,10,03,11,20,14.50
2013,10,03,11,21,14.50
2013,10,03,11,22,11.30
2013,10,03,11,23,9.60
2013,10,03,11,24,9.60
2013,10,03,11,25,8.10
2013,10,03,11,26,14.50
2013,10,03,11,27,11.30
2013,10,03,11,28,12.90
2013,10,03,11,29,11.30
2013,10,03,11,30,9.60
2013,10,03,11,31,11.30
2013,10,03,11,32,14.50
2013,10,03,11,33,12.90
2013,10,03,11,34,8.10
2013,10,03,11,35,14.50
2013,10,03,11,36,11.30
2013,10,03,11,37,11.30
2013,10,03,11,38,14.50
2013,10,03,11,39,11.30
2013,10,03,11,40,9.60
2013,10,03,11,41,11.30
2013,10,03,11,42,12.90
2013,10,03,11,43,14.50
2013,10,03,11,44,14.50
2013,10,03,11,45,8.10
2013,10,03,11,46,8.10
2013,10,03,11,47,6.40
2013,10,03,11,48,8.10
2013,10,03,11,49,9.60
2013,10,03,11,50,11.30
2013,10,03,11,51,8.10
2013,10,03,11,52,8.10
2013,10,03,11,53,9.60
2013,10,03,11,54,8.10
2013,10,03,11,55,6.40
2013,10,03,11,56,9.60
2013,10,03,11,57,4.80
2013,10,03,11,58,6.40
2013,10,03,11,59,4.80
2013,10,03,12,00,6.40
2013,10,03,12,01,4.80
2013,10,03,12,02,4.80
2013,10,03,12,03,8.10
2013,10,03,12,04,11.30
2013,10,03,12,05,9.60
2013,10,03,12,06,9.60
2013,10,03,12,07,9.60
2013,10,03,12,08,8.10
2013,10,03,12,09,6.40
2013,10,03,12,10,4.80
2013,10,03,12,11,6.40
2013,10,03,12,12,6.40
2013,10,03,12,13,6.40
2013,10,03,12,14,9.60
2013,10,03,12,15,11.30
2013,10,03,12,16,9.60
2013,10,03,12,17,8.10
2013,10,03,12,18,8.10
2013,10,03,12,19,9.60
2013,10,03,12,20,9.60
2013,10,03,12,21,4.80
2013,10,03,12,22,8.10
2013,10,03,12,23,6.40
2013,10,03,12,24,4.80
2013,10,03,12,25,4.80
2013,10,03,12,26,4.80
2013,10,03,12,27,6.40
2013,10,03,12,28,9.60
2013,10,03,12,29,14.50
2013,10,03,12,30,14.50
2013,10,03,12,31,8.10
2013,10,03,12,32,4.80
2013,10,03,12,33,6.40
2013,10,03,12,34,6.40
2013,10,03,12,35,6.40
2013,10,03,12,36,6.40
2013,10,03,12,37,4.80
2013,10,03,12,38,12.90
2013,10,03,12,39,14.50
2013,10,03,12,40,9.60
2013,10,03,12,41,6.40
2013,10,03,12,42,12.90
2013,10,03,12,43,9.60
2013,10,03,12,44,9.60
2013,10,03,12,45,8.10
2013,10,03,12,46,8.10
2013,10,03,12,47,9.60
2013,10,03,12,48,6.40
2013,10,03,12,49,8.10
2013,10,03,12,50,11.30
2013,10,03,12,51,8.10
2013,10,03,12,52,4.80
2013,10,03,12,53,6.40
2013,10,03,12,54,6.40
2013,10,03,12,55,6.40
2013,10,03,12,56,8.10
2013,10,03,12,57,4.80
2013,10,03,12,58,3.20
2013,10,03,12,59,4.80
2013,10,03,13,00,4.80
2013,10,03,13,01,4.80
2013,10,03,13,02,9.60
2013,10,03,13,03,9.60
2013,10,03,13,04,8.10
2013,10,03,13,05,9.60
2013,10,03,13,06,3.20
2013,10,03,13,07,1.60
2013,10,03,13,08,3.20
2013,10,03,13,09,6.40
2013,10,03,13,10,4.80
2013,10,03,13,11,11.30
2013,10,03,13,12,4.80
2013,10,03,13,13,6.40
2013,10,03,13,14,4.80
2013,10,03,13,15,3.20
2013,10,03,13,16,4.80
2013,10,03,13,17,1.60
2013,10,03,13,18,4.80
2013,10,03,13,19,8.10
2013,10,03,13,20,8.10
2013,10,03,13,21,8.10
2013,10,03,13,22,3.20
2013,10,03,13,23,8.10
2013,10,03,13,24,4.80
2013,10,03,13,25,4.80
2013,10,03,13,26,4.80
2013,10,03,13,27,4.80
2013,10,03,13,28,9.60
2013,10,03,13,29,4.80
2013,10,03,13,30,8.10
2013,10,03,13,31,6.40
2013,10,03,13,32,6.40
2013,10,03,13,33,8.10
2013,10,03,13,34,8.10
2013,10,03,13,35,14.50
2013,10,03,13,36,8.10
2013,10,03,13,37,9.60
2013,10,03,13,38,9.60
2013,10,03,13,39,8.10
2013,10,03,13,40,9.60
2013,10,03,13,41,9.60
2013,10,03,13,42,9.60
2013,10,03,13,43,8.10
2013,10,03,13,44,8.10
2013,10,03,13,45,11.30
2013,10,03,13,46,11.30
2013,10,03,13,47,9.60
2013,10,03,13,48,3.20
2013,10,03,13,49,9.60
2013,10,03,13,50,6.40
2013,10,03,13,51,11.30
2013,10,03,13,52,8.10
2013,10,03,13,53,9.60
2013,10,03,13,54,9.60
2013,10,03,13,55,9.60
2013,10,03,13,56,9.60
2013,10,03,13,57,11.30
2013,10,03,13,58,12.90
2013,10,03,13,59,8.10
2013,10,03,14,00,8.10
2013,10,03,14,01,8.10
2013,10,03,14,02,16.10
2013,10,03,14,03,11.30
2013,10,03,14,04,11.30
2013,10,03,14,05,6.40
2013,10,03,14,06,4.80
2013,10,03,14,07,8.10
2013,10,03,14,08,6.40
2013,10,03,14,09,6.40
2013,10,03,14,10,14.50
2013,10,03,14,11,8.10
2013,10,03,14,12,9.60
2013,10,03,14,13,4.80
2013,10,03,14,14,11.30
2013,10,03,14,15,6.40
2013,10,03,14,16,8.10
2013,10,03,14,17,8.10
2013,10,03,14,18,6.40
2013,10,03,14,19,8.10
2013,10,03,14,20,6.40
2013,10,03,14,21,9.60
2013,10,03,14,22,12.90
2013,10,03,14,23,4.80
2013,10,03,14,24,11.30
2013,10,03,14,25,12.90
2013,10,03,14,26,6.40
2013,10,03,14,27,6.40
2013,10,03,14,28,4.80
2013,10,03,14,29,6.40
2013,10,03,14,30,8.10
2013,10,03,14,31,9.60
2013,10,03,14,32,6.40
2013,10,03,14,33,6.40
2013,10,03,14,34,12.90
2013,10,03,14,35,9.60
2013,10,03,14,36,6.40
2013,10,03,14,37,4.80
2013,10,03,14,38,4.80
2013,10,03,14,39,14.50
2013,10,03,14,40,12.90
2013,10,03,14,41,8.10
2013,10,03,14,42,8.10
2013,10,03,14,43,6.40
2013,10,03,14,44,8.10
2013,10,03,14,45,8.10
2013,10,03,14,46,11.30
2013,10,03,14,47,4.80
2013,10,03,14,48,4.80
2013,10,03,14,49,6.40
2013,10,03,14,50,8.10
2013,10,03,14,51,8.10
2013,10,03,14,52,4.80
2013,10,03,14,53,4.80
2013,10,03,14,54,6.40
2013,10,03,14,55,6.40
2013,10,03,14,56,4.80
2013,10,03,14,57,3.20
2013,10,03,14,58,4.80
2013,10,03,14,59,4.80
2013,10,03,15,00,3.20
2013,10,03,15,01,8.10
2013,10,03,15,02,9.60
2013,10,03,15,03,9.60
2013,10,03,15,24,4.80
2013,10,03,15,26,3.20
2013,10,03,15,27,6.40
2013,10,03,15,28,6.40
2013,10,03,15,29,6.40
2013,10,03,15,30,8.10
2013,10,03,15,46,9.60
2013,10,03,15,47,4.80
2013,10,03,15,48,11.30
2013,10,03,15,49,16.10
2013,10,03,15,50,17.70
2013,10,03,15,51,11.30
2013,10,03,15,52,16.10
2013,10,03,15,53,14.50
2013,10,03,15,54,11.30
2013,10,03,15,55,8.10
2013,10,03,15,56,6.40
2013,10,03,15,57,6.40
2013,10,03,15,58,6.40
2013,10,03,15,59,4.80
2013,10,03,16,00,6.40
2013,10,03,16,01,8.10
2013,10,03,16,02,9.60
2013,10,03,16,03,11.30
2013,10,03,16,04,6.40
2013,10,03,16,05,11.30
2013,10,03,16,06,11.30
2013,10,03,16,07,12.90
2013,10,03,16,08,14.50
2013,10,03,16,09,14.50
2013,10,03,16,10,14.50
2013,10,03,16,11,9.60
2013,10,03,16,12,11.30
2013,10,03,16,13,11.30
2013,10,03,16,14,9.60
2013,10,03,16,15,9.60
2013,10,03,16,16,11.30
2013,10,03,16,17,11.30
2013,10,03,16,18,9.60
2013,10,03,16,19,8.10
2013,10,03,16,20,4.80
2013,10,03,16,21,4.80
2013,10,03,16,22,4.80
2013,10,03,16,23,4.80
2013,10,03,16,24,4.80
2013,10,03,16,25,6.40
2013,10,03,16,26,8.10
2013,10,03,16,27,4.80
2013,10,03,16,28,3.20
2013,10,03,16,29,8.10
2013,10,03,16,30,8.10
2013,10,03,16,31,4.80
2013,10,03,16,32,8.10
2013,10,03,16,33,6.40
2013,10,03,16,34,8.10
2013,10,03,16,35,9.60
2013,10,03,16,36,6.40
2013,10,03,16,37,9.60
2013,10,03,16,38,9.60
2013,10,03,16,39,6.40
2013,10,03,16,40,8.10
2013,10,03,16,41,9.60
2013,10,03,16,42,11.30
2013,10,03,16,43,9.60
2013,10,03,16,44,8.10
2013,10,03,16,45,6.40
2013,10,03,16,46,6.40
2013,10,03,16,47,8.10
2013,10,03,16,48,8.10
2013,10,03,16,49,6.40
2013,10,03,16,50,8.10
2013,10,03,16,51,8.10
2013,10,03,16,52,9.60
2013,10,03,16,53,9.60
2013,10,03,16,54,6.40
2013,10,03,16,55,8.10
2013,10,03,16,56,9.60
2013,10,03,16,57,9.60
2013,10,03,16,58,9.60
2013,10,03,16,59,9.60
2013,10,03,17,00,9.60
2013,10,03,17,01,6.40
2013,10,03,17,02,6.40
2013,10,03,17,03,4.80
2013,10,03,17,04,9.60
2013,10,03,17,05,9.60
2013,10,03,17,06,8.10
2013,10,03,17,07,6.40
2013,10,03,17,08,6.40
2013,10,03,17,09,6.40
2013,10,03,17,10,6.40
2013,10,03,17,11,4.80
2013,10,03,17,12,4.80
2013,10,03,17,13,4.80
2013,10,03,17,14,4.80
2013,10,03,17,15,6.40
2013,10,03,17,16,6.40
2013,10,03,17,17,3.20
2013,10,03,17,18,4.80
2013,10,03,17,19,6.40
2013,10,03,17,20,4.80
2013,10,03,17,21,4.80
2013,10,03,17,22,3.20
2013,10,03,17,23,4.80
2013,10,03,17,24,4.80
2013,10,03,17,25,6.40
2013,10,03,17,26,8.10
2013,10,03,17,27,6.40
2013,10,03,17,28,4.80
2013,10,03,17,29,4.80
2013,10,03,17,30,6.40
2013,10,03,17,31,4.80
2013,10,03,17,32,6.40
2013,10,03,17,33,6.40
2013,10,03,17,34,4.80
2013,10,03,17,35,6.40
2013,10,03,17,36,4.80
2013,10,03,17,37,4.80
2013,10,03,17,38,6.40
2013,10,03,17,39,6.40
2013,10,03,17,40,4.80
2013,10,03,17,41,4.80
2013,10,03,17,42,4.80
2013,10,03,17,43,4.80
2013,10,03,17,44,4.80
2013,10,03,17,45,4.80
2013,10,03,17,46,4.80
2013,10,03,17,47,3.20
2013,10,03,17,48,3.20
2013,10,03,17,49,3.20
2013,10,03,17,50,3.20
2013,10,03,17,51,3.20
2013,10,03,17,52,3.20
2013,10,03,17,53,3.20
2013,10,03,17,54,3.20
2013,10,03,17,55,3.20
2013,10,03,17,56,3.20
2013,10,03,17,57,3.20
2013,10,03,17,58,6.40
2013,10,03,17,59,6.40
2013,10,03,18,00,8.10
2013,10,03,18,01,4.80
2013,10,03,18,02,4.80
2013,10,03,18,03,4.80
2013,10,03,18,04,4.80
2013,10,03,18,05,4.80
2013,10,03,18,06,3.20
2013,10,03,18,07,4.80
2013,10,03,18,08,3.20
2013,10,03,18,09,4.80
2013,10,03,18,10,3.20
2013,10,03,18,11,4.80
2013,10,03,18,12,4.80
2013,10,03,18,13,3.20
2013,10,03,18,14,3.20
2013,10,03,18,15,3.20
2013,10,03,18,16,3.20
2013,10,03,18,17,3.20
2013,10,03,18,18,4.80
2013,10,03,18,19,4.80
2013,10,03,18,20,4.80
2013,10,03,18,21,3.20
2013,10,03,18,22,3.20
2013,10,03,18,23,3.20
2013,10,03,18,24,4.80
2013,10,03,18,25,3.20
2013,10,03,18,26,3.20
2013,10,03,18,27,3.20
2013,10,03,18,28,3.20
2013,10,03,18,29,3.20
2013,10,03,18,30,3.20
2013,10,03,18,31,3.20
2013,10,03,18,32,3.20
2013,10,03,18,33,3.20
2013,10,03,18,34,3.20
2013,10,03,18,35,3.20
2013,10,03,18,36,1.60
2013,10,03,18,37,1.60
2013,10,03,18,38,1.60
2013,10,03,18,39,1.60
2013,10,03,18,40,1.60
2013,10,03,18,41,3.20
2013,10,03,18,42,3.20
2013,10,03,18,43,3.20
2013,10,03,18,44,1.60
2013,10,03,18,45,1.60
2013,10,03,18,46,1.60
2013,10,03,19,18,1.60
2013,10,03,19,21,1.60
2013,10,03,19,22,1.60
2013,10,03,19,23,1.60
2013,10,03,19,24,1.60
2013,10,03,19,25,1.60
2013,10,03,19,28,1.60
2013,10,03,19,30,1.60
2013,10,03,19,41,1.60
2013,10,03,19,44,1.60
2013,10,03,19,52,1.60
2013,10,03,19,54,1.60
2013,10,03,20,00,1.60
2013,10,03,20,01,1.60
2013,10,03,20,02,1.60
2013,10,03,20,03,1.60
2013,10,03,20,04,1.60
2013,10,03,20,05,1.60
2013,10,03,20,06,1.60
2013,10,03,20,07,1.60
2013,10,03,20,08,1.60
2013,10,03,20,09,1.60
2013,10,03,20,10,1.60
2013,10,03,20,11,1.60
2013,10,03,20,12,1.60
2013,10,03,20,13,1.60
2013,10,03,20,14,1.60
2013,10,03,20,15,1.60
2013,10,03,20,52,1.60
2013,10,03,20,53,1.60
2013,10,03,20,54,1.60
2013,10,03,20,55,1.60
2013,10,03,20,56,1.60
2013,10,03,20,57,1.60
2013,10,03,20,58,1.60
2013,10,03,20,59,1.60
2013,10,03,21,00,1.60
2013,10,03,21,01,1.60
2013,10,03,21,02,1.60
2013,10,03,21,03,1.60
2013,10,03,21,04,1.60
2013,10,03,21,05,1.60
2013,10,03,21,06,1.60
2013,10,03,21,07,1.60
2013,10,03,21,08,1.60
2013,10,03,21,09,1.60
2013,10,03,21,10,1.60
2013,10,03,21,11,1.60
2013,10,03,21,12,1.60
2013,10,03,21,13,1.60
2013,10,03,21,14,1.60
2013,10,03,21,15,1.60
2013,10,03,21,16,1.60
2013,10,03,21,17,1.60
2013,10,03,21,18,1.60
2013,10,03,21,19,1.60
2013,10,03,21,20,1.60
2013,10,03,21,21,1.60
2013,10,03,21,22,1.60
2013,10,03,21,23,1.60
2013,10,03,21,24,1.60
2013,10,03,21,25,1.60
2013,10,03,21,26,1.60
2013,10,03,21,27,1.60
2013,10,03,21,28,1.60
2013,10,03,21,29,1.60
2013,10,03,21,30,1.60
2013,10,03,21,31,1.60
2013,10,03,21,32,1.60
2013,10,03,21,33,1.60
2013,10,03,21,34,1.60
2013,10,03,21,35,1.60
2013,10,03,21,36,1.60
2013,10,03,21,37,1.60
2013,10,03,21,38,1.60
2013,10,03,21,39,1.60
2013,10,03,21,40,1.60
2013,10,03,21,41,1.60
2013,10,03,21,42,1.60
2013,10,03,21,43,1.60
2013,10,03,21,44,1.60
2013,10,03,21,45,1.60
2013,10,03,21,46,1.60
2013,10,03,21,47,1.60
2013,10,03,21,48,1.60
2013,10,03,21,49,1.60
2013,10,03,21,55,1.60
2013,10,03,21,56,1.60
2013,10,03,21,57,1.60
2013,10,03,21,58,1.60
2013,10,03,22,18,1.60
2013,10,03,22,19,1.60
2013,10,03,22,21,1.60
2013,10,03,22,22,1.60
2013,10,03,22,23,1.60
2013,10,03,22,24,1.60
2013,10,03,22,25,1.60